DW9447 Weather Reports


Display with metric or nautical units.
time (UTC)temp
F
wind
direction
speed
MPH
gust
MPH
rain 1hr
in
rain 24hr
in
rain mn
in
humidity
%
barometer
mb
20260510175105 84 319 1.0 5.0 0.00 0.00 0.00 48 1017.1
20260510174605 83 321 1.0 4.0 0.00 0.00 0.00 50 1017.2
20260510173606 83 188 2.0 5.0 0.00 0.00 0.00 52 1017.4
20260510173103 83 98 3.0 8.0 0.00 0.00 0.00 50 1017.4
20260510172601 84 270 3.0 8.0 0.00 0.00 0.00 52 1017.4
20260510171559 83 131 1.0 6.0 0.00 0.00 0.00 57 1017.4
20260510170557 82 236 2.0 5.0 0.00 0.00 0.00 59 1017.7
20260510165555 81 258 3.0 6.0 0.00 0.00 0.00 58 1017.7
20260510165055 82 309 2.0 5.0 0.00 0.00 0.00 59 1017.7
20260510164556 81 174 2.0 5.0 0.00 0.00 0.00 62 1017.7
20260510164056 81 248 2.0 5.0 0.00 0.00 0.00 63 1017.7
20260510163554 80 46 1.0 3.0 0.00 0.00 0.00 63 1017.6
20260510163048 80 270 2.0 4.0 0.00 0.00 0.00 64 1017.6
20260510162547 80 215 3.0 7.0 0.00 0.00 0.00 64 1017.7
20260510162047 80 236 2.0 7.0 0.00 0.00 0.00 66 1017.7
20260510161547 79 216 2.0 5.0 0.00 0.00 0.00 66 1017.7
20260510161047 79 314 2.0 5.0 0.00 0.00 0.00 67 1017.6
20260510160547 79 232 2.0 5.0 0.00 0.00 0.00 67 1017.6
20260510155547 78 321 1.0 3.0 0.00 0.00 0.00 71 1017.7
20260510155047 78 233 2.0 6.0 0.00 0.00 0.00 70 1017.7
20260510154547 78 274 2.0 6.0 0.00 0.00 0.00 70 1017.7
20260510154045 78 260 1.0 5.0 0.00 0.00 0.00 71 1017.6
20260510153545 77 250 2.0 5.0 0.00 0.00 0.00 72 1017.6
20260510152545 76 314 2.0 6.0 0.00 0.00 0.00 73 1017.5
20260510152044 76 64 1.0 4.0 0.00 0.00 0.00 75 1017.5
20260510151544 76 348 1.0 3.0 0.00 0.00 0.00 76 1017.4
20260510151035 75 220 2.0 3.0 0.00 0.00 0.00 76 1017.5
20260510150041 74 290 1.0 3.0 0.00 0.00 0.00 77 1017.5
20260510145538 74 328 1.0 3.0 0.00 0.00 0.00 79 1017.5
20260510145035 73 307 1.0 3.0 0.00 0.00 0.00 80 1017.5
20260510144535 73 325 1.0 4.0 0.00 0.00 0.00 82 1017.4
20260510144035 72 217 1.0 4.0 0.00 0.00 0.00 84 1017.4
20260510143535 71 2 1.0 3.0 0.00 0.00 0.00 88 1017.4
20260510143035 70 320 1.0 3.0 0.00 0.00 0.00 90 1017.4
20260510141533 67 105 2.0 3.0 0.00 0.00 0.00 94 1017.3
20260510141032 67 106 1.0 3.0 0.00 0.00 0.00 94 1017.3
20260510140530 66 108 1.0 3.0 0.00 0.00 0.00 95 1017.3
20260510135531 65 33 1.0 3.0 0.00 0.00 0.00 95 1017.3
20260510135028 65 111 1.0 3.0 0.00 0.00 0.00 94 1017.4
20260510134528 64 131 1.0 2.0 0.00 0.00 0.00 95 1017.5
20260510134028 64 107 0.0 2.0 0.00 0.00 0.00 94 1017.4
20260510133527 63 31 0.0 2.0 0.00 0.00 0.00 94 1017.5
20260510133027 63 29 1.0 2.0 0.00 0.00 0.00 94 1017.5
20260510132526 62 29 0.0 2.0 0.00 0.00 0.00 94 1017.4
20260510132028 62 78 0.0 1.0 0.00 0.00 0.00 94 1017.5
20260510131516 62 114 1.0 2.0 0.00 0.00 0.00 94 1017.4
20260510131017 61 114 1.0 2.0 0.00 0.00 0.00 94 1017.4
20260510130518 61 99 1.0 2.0 0.00 0.00 0.00 94 1017.2
20260510130015 61 105 1.0 2.0 0.00 0.00 0.00 94 1017.2
20260510125515 60 105 1.0 2.0 0.00 0.00 0.00 94 1017.2
20260510124515 60 32 0.0 1.0 0.00 0.00 0.00 94 1017.1
20260510124014 60 29 0.0 1.0 0.00 0.00 0.00 94 1017.2
20260510123011 59 8 0.0 2.0 0.00 0.00 0.00 94 1017.2
20260510122511 59 352 0.0 1.0 0.00 0.00 0.00 93 1017.2
20260510122010 58 359 0.0 2.0 0.00 0.00 0.00 93 1017.2
20260510121010 58 308 0.0 1.0 0.00 0.00 0.00 93 1016.8
20260510120511 58 308 0.0 1.0 0.00 0.00 0.00 93 1016.6
20260510115510 57 308 0.0 1.0 0.00 0.00 0.00 93 1016.3
20260510115007 57 308 0.0 1.0 0.00 0.00 0.00 92 1016.2
20260510114508 56 308 0.0 1.0 0.00 0.00 0.00 92 1016.2
20260510114009 56 308 0.0 0.0 0.00 0.00 0.00 92 1016.2
20260510113507 56 304 0.0 0.0 0.00 0.00 0.00 91 1016.1
20260510113008 56 303 0.0 0.0 0.00 0.00 0.00 91 1016.0
20260510112508 56 303 0.0 0.0 0.00 0.00 0.00 91 1016.0
20260510112006 56 303 0.0 0.0 0.00 0.00 0.00 91 1015.9
20260510110500 56 304 0.0 0.0 0.00 0.00 0.00 91 1015.6
20260510110001 56 304 0.0 0.0 0.00 0.00 0.00 91 1015.6
20260510105501 56 303 0.0 0.0 0.00 0.00 0.00 91 1015.6
20260510104958 56 303 0.0 0.0 0.00 0.00 0.00 91 1015.3
20260510104457 56 303 0.0 0.0 0.00 0.00 0.00 91 1015.2
20260510103955 56 303 0.0 0.0 0.00 0.00 0.00 91 1015.2
20260510102956 56 304 0.0 0.0 0.00 0.00 0.00 91 1015.0
20260510101950 56 304 0.0 0.0 0.00 0.00 0.00 91 1015.0
20260510101451 56 304 0.0 0.0 0.00 0.00 0.00 91 1015.0
20260510100951 57 304 0.0 0.0 0.00 0.00 0.00 90 1014.9
20260510100449 57 304 0.0 0.0 0.00 0.00 0.00 90 1014.8
20260510095947 57 304 0.0 0.0 0.00 0.00 0.00 90 1014.8
20260510094441 57 305 0.0 0.0 0.00 0.00 0.00 90 1014.6
20260510093931 57 305 0.0 0.0 0.00 0.00 0.00 91 1014.4
20260510093426 57 305 0.0 0.0 0.00 0.00 0.00 90 1014.5
20260510092920 57 305 0.0 0.0 0.00 0.00 0.00 90 1014.5
20260510092409 57 305 0.0 0.0 0.00 0.00 0.00 90 1014.4
20260510091903 57 305 0.0 0.0 0.00 0.00 0.00 90 1014.4
20260510091359 57 306 0.0 0.0 0.00 0.00 0.00 90 1014.5
20260510090847 58 305 0.0 0.0 0.00 0.00 0.00 90 1014.5
20260510085325 58 305 0.0 0.0 0.00 0.00 0.00 90 1014.5
20260510084819 58 305 0.0 0.0 0.00 0.00 0.00 90 1014.5
20260510084314 58 305 0.0 0.0 0.00 0.00 0.00 90 1014.5
20260510083310 58 306 0.0 0.0 0.00 0.00 0.00 90 1014.4
20260510082809 58 305 0.0 0.0 0.00 0.00 0.00 90 1014.4
20260510082308 58 304 0.0 0.0 0.00 0.00 0.00 90 1014.3
20260510081808 58 307 0.0 0.0 0.00 0.00 0.00 90 1014.3
20260510081306 59 307 0.0 0.0 0.00 0.00 0.00 90 1014.3
20260510080804 59 307 0.0 0.0 0.00 0.00 0.00 90 1014.2
20260510080302 59 307 0.0 0.0 0.00 0.00 0.00 89 1014.1
20260510075803 59 307 0.0 0.0 0.00 0.00 0.00 89 1014.1
20260510075305 59 307 0.0 0.0 0.00 0.00 0.00 89 1014.0
20260510074800 59 307 0.0 0.0 0.00 0.01 0.00 89 1014.0
20260510074258 59 307 0.0 0.0 0.00 0.01 0.00 89 1013.9
20260510073759 59 307 0.0 0.0 0.00 0.01 0.00 89 1013.8
20260510073259 60 307 0.0 0.0 0.00 0.01 0.00 89 1013.8
20260510072756 60 307 0.0 0.0 0.00 0.01 0.00 89 1013.9
20260510072254 60 307 0.0 0.0 0.00 0.01 0.00 89 1013.8
20260510071748 60 305 0.0 0.0 0.00 0.01 0.00 89 1013.8
20260510071242 60 306 0.0 0.0 0.00 0.01 0.00 89 1013.9
20260510070738 60 305 0.0 0.0 0.00 0.01 0.00 89 1013.8
20260510070238 60 304 0.0 0.0 0.00 0.01 0.00 89 1013.9
20260510065738 60 306 0.0 0.0 0.00 0.01 0.00 89 1013.9
20260510065238 60 306 0.0 0.0 0.00 0.01 0.00 89 1013.9
20260510064738 60 305 0.0 0.0 0.00 0.01 0.00 89 1014.0
20260510064236 61 304 0.0 0.0 0.00 0.01 0.00 89 1014.0
20260510063733 61 303 0.0 0.0 0.00 0.01 0.00 89 1013.9
20260510063233 61 303 0.0 0.0 0.00 0.01 0.00 89 1013.9
20260510062232 61 302 0.0 0.0 0.00 0.01 0.00 89 1013.9
20260510061729 61 304 0.0 0.0 0.00 0.01 0.00 89 1013.8
20260510061229 61 304 0.0 0.0 0.00 0.01 0.00 89 1013.8
20260510060729 62 304 0.0 0.0 0.00 0.01 0.00 89 1013.8
20260510060226 62 305 0.0 0.0 0.00 0.01 0.00 89 1013.9
20260510055726 62 304 0.0 0.0 0.00 0.01 0.00 89 1013.9
20260510055226 62 304 0.0 0.0 0.00 0.01 0.00 88 1013.9
20260510054726 62 305 0.0 0.0 0.00 0.01 0.00 88 1013.9
20260510054226 62 304 0.0 1.0 0.00 0.01 0.00 88 1013.8
20260510053724 62 304 0.0 1.0 0.00 0.01 0.00 88 1013.9
20260510053222 62 304 0.0 0.0 0.00 0.01 0.00 88 1013.9
20260510052720 62 304 0.0 0.0 0.00 0.01 0.00 88 1013.9
20260510052218 62 305 0.0 0.0 0.00 0.01 0.00 88 1014.0
20260510051721 63 305 0.0 0.0 0.00 0.01 0.00 88 1014.0
20260510051220 63 304 0.0 0.0 0.00 0.01 0.00 88 1014.0
20260510050718 63 306 0.0 0.0 0.00 0.01 0.00 88 1014.0
20260510050216 63 304 0.0 0.0 0.00 0.01 0.00 88 1014.0
20260510045716 63 307 0.0 0.0 0.00 0.01 0.01 87 1013.9
20260510045214 63 302 0.0 0.0 0.00 0.01 0.01 87 1013.9
20260510044712 63 293 0.0 0.0 0.00 0.01 0.01 87 1013.8
20260510044210 63 309 0.0 0.0 0.00 0.01 0.01 87 1013.8
20260510043208 63 310 0.0 0.0 0.00 0.01 0.01 87 1013.9
20260510042702 63 309 0.0 1.0 0.00 0.01 0.01 87 1014.0
20260510042155 64 310 0.0 1.0 0.00 0.01 0.01 86 1014.0
20260510041645 64 309 0.0 0.0 0.00 0.01 0.01 86 1014.1
20260510040638 64 309 0.0 0.0 0.00 0.01 0.01 85 1014.2
20260510035638 64 309 0.0 0.0 0.00 0.01 0.01 84 1014.2
20260510035138 64 309 0.0 0.0 0.00 0.01 0.01 83 1014.2
20260510034636 64 311 0.0 0.0 0.00 0.01 0.01 83 1014.3
20260510034136 64 311 0.0 1.0 0.00 0.01 0.01 83 1014.3
20260510033636 64 311 0.0 1.0 0.00 0.01 0.01 83 1014.2
20260510033138 65 311 0.0 0.0 0.00 0.01 0.01 82 1014.2
20260510032636 65 311 0.0 0.0 0.00 0.01 0.01 82 1014.2
20260510032135 65 293 0.0 0.0 0.00 0.01 0.01 82 1014.1
20260510031634 65 311 0.0 0.0 0.00 0.01 0.01 82 1014.0
20260510030632 65 311 0.0 0.0 0.00 0.01 0.01 82 1014.0
20260510030131 65 311 0.0 1.0 0.00 0.01 0.01 82 1013.9
20260510025632 66 311 0.0 1.0 0.00 0.01 0.01 82 1013.9
20260510025129 66 311 0.0 1.0 0.00 0.01 0.01 81 1013.8
20260510024129 66 311 0.0 1.0 0.00 0.01 0.01 80 1013.7
20260510023629 67 311 0.0 1.0 0.00 0.01 0.01 79 1013.7
20260510023130 67 311 0.0 0.0 0.00 0.01 0.01 78 1013.6
20260510022126 67 311 0.0 1.0 0.00 0.01 0.01 78 1013.4
20260510021126 68 311 0.0 2.0 0.00 0.01 0.01 77 1013.2
20260510020126 69 323 0.0 2.0 0.00 0.01 0.01 76 1013.0
20260510015626 69 349 0.0 1.0 0.00 0.01 0.01 75 1012.9
20260510015125 69 305 0.0 1.0 0.00 0.01 0.01 73 1012.8
20260510014626 70 287 0.0 0.0 0.00 0.01 0.01 73 1012.6
20260510014125 70 287 0.0 0.0 0.00 0.01 0.01 72 1012.4
20260510013626 71 287 0.0 0.0 0.00 0.01 0.01 71 1012.3
20260510013126 71 287 0.0 0.0 0.00 0.01 0.01 70 1012.3
20260510012134 72 287 0.0 0.0 0.00 0.01 0.01 68 1012.0
20260510011626 72 287 0.0 0.0 0.00 0.01 0.01 68 1012.0
20260510011126 73 287 0.0 0.0 0.00 0.01 0.01 67 1011.9
20260510010625 73 287 0.0 0.0 0.00 0.01 0.01 66 1011.8
20260510010126 74 287 0.0 0.0 0.00 0.01 0.01 65 1011.7
20260510005626 74 287 0.0 0.0 0.00 0.01 0.01 65 1011.7
20260510005127 74 287 0.0 0.0 0.00 0.01 0.01 64 1011.6
20260510004623 75 287 0.0 0.0 0.00 0.01 0.01 64 1011.4
20260510004124 75 287 0.0 0.0 0.00 0.01 0.01 63 1011.5
20260510003624 76 287 0.0 0.0 0.00 0.01 0.01 62 1011.5
20260510003123 76 287 0.0 0.0 0.00 0.01 0.01 61 1011.4
20260510002623 76 288 0.0 0.0 0.00 0.01 0.01 60 1011.3
20260510002116 77 288 0.0 1.0 0.00 0.01 0.01 59 1011.3
20260510001609 77 288 0.0 1.0 0.00 0.01 0.01 59 1011.2
20260510001058 77 288 0.0 2.0 0.00 0.01 0.01 58 1011.1
20260510000552 77 288 1.0 3.0 0.00 0.01 0.01 58 1011.1
20260510000045 77 230 2.0 3.0 0.00 0.01 0.01 56 1011.2
20260509235028 78 272 1.0 3.0 0.00 0.01 0.01 56 1011.1
20260509234523 78 273 1.0 3.0 0.00 0.01 0.01 56 1011.1
20260509234012 78 271 2.0 3.0 0.00 0.01 0.01 57 1011.0
20260509233505 78 278 2.0 3.0 0.00 0.01 0.01 57 1011.1
20260509232452 78 315 1.0 3.0 0.00 0.01 0.01 55 1011.1
20260509231944 78 285 2.0 4.0 0.00 0.01 0.01 55 1011.1
20260509231438 78 321 2.0 4.0 0.00 0.01 0.01 54 1011.1
20260509230928 79 322 2.0 3.0 0.00 0.01 0.01 55 1011.1
20260509230423 79 292 2.0 4.0 0.00 0.01 0.01 55 1011.1
20260509225916 79 309 2.0 4.0 0.00 0.01 0.01 55 1011.0
20260509225405 79 301 2.0 4.0 0.00 0.01 0.01 54 1011.0
20260509224900 79 238 2.0 4.0 0.00 0.01 0.01 54 1011.0
20260509224354 79 219 2.0 4.0 0.00 0.01 0.01 52 1011.0
20260509223845 80 244 1.0 4.0 0.00 0.01 0.01 52 1010.9
20260509223340 80 284 1.0 2.0 0.00 0.01 0.01 52 1010.8
20260509222833 80 243 1.0 4.0 0.00 0.01 0.01 50 1010.8
20260509222322 80 228 2.0 4.0 0.00 0.01 0.01 49 1010.9
20260509221816 80 259 2.0 4.0 0.00 0.01 0.01 51 1010.9
20260509221310 80 248 2.0 5.0 0.00 0.01 0.01 51 1010.8
20260509220800 80 269 2.0 5.0 0.00 0.01 0.01 50 1010.8
20260509220254 80 286 2.0 5.0 0.00 0.01 0.01 51 1010.7
20260509215749 80 292 2.0 5.0 0.00 0.01 0.01 49 1010.7
20260509215239 80 264 3.0 5.0 0.00 0.01 0.01 50 1010.6
20260509214732 80 296 2.0 5.0 0.00 0.01 0.01 49 1010.8
20260509214226 80 254 3.0 7.0 0.00 0.01 0.01 48 1010.6
20260509213716 80 328 3.0 7.0 0.00 0.01 0.01 49 1010.6
20260509212704 80 269 3.0 7.0 0.00 0.01 0.01 49 1010.5
20260509211649 81 304 3.0 6.0 0.00 0.01 0.01 51 1010.7
20260509211142 81 269 2.0 5.0 0.00 0.01 0.01 50 1010.7
20260509205620 81 242 3.0 8.0 0.00 0.01 0.01 48 1010.7
20260509204604 82 213 2.0 5.0 0.00 0.01 0.01 49 1010.9
20260509204059 81 248 1.0 5.0 0.00 0.01 0.01 51 1010.8
20260509203548 81 209 2.0 5.0 0.00 0.02 0.01 50 1011.0
20260509203042 80 289 2.0 5.0 0.00 0.02 0.01 50 1011.1
20260509202536 80 257 2.0 5.0 0.00 0.02 0.01 49 1011.1
20260509202032 81 214 2.0 5.0 0.00 0.02 0.01 50 1011.1
20260509201528 81 238 2.0 5.0 0.00 0.02 0.01 49 1011.2
20260509201027 81 238 1.0 5.0 0.00 0.02 0.01 49 1011.1
20260509200525 81 223 1.0 5.0 0.00 0.02 0.01 51 1011.1
20260509200023 81 224 3.0 6.0 0.00 0.02 0.01 49 1011.2
20260509195521 82 293 4.0 7.0 0.00 0.02 0.01 47 1011.2
20260509195019 82 256 3.0 7.0 0.00 0.02 0.01 46 1011.2
20260509194519 82 263 3.0 6.0 0.00 0.02 0.01 48 1011.2
20260509194019 82 339 3.0 6.0 0.00 0.02 0.01 49 1011.2
20260509193022 83 285 2.0 4.0 0.00 0.02 0.01 47 1011.2
20260509192517 83 212 2.0 7.0 0.00 0.02 0.01 47 1011.3
20260509192018 83 271 3.0 7.0 0.00 0.02 0.01 49 1011.2
20260509191517 83 214 3.0 6.0 0.00 0.02 0.01 50 1011.2
20260509191017 82 269 2.0 6.0 0.00 0.02 0.01 50 1011.3
20260509190517 82 314 2.0 5.0 0.00 0.02 0.01 48 1011.4
20260509190011 82 271 3.0 7.0 0.00 0.02 0.01 48 1011.5
20260509185511 82 235 3.0 7.0 0.00 0.02 0.01 48 1011.5
20260509185012 82 317 3.0 7.0 0.00 0.02 0.01 50 1011.4
20260509184516 81 269 3.0 7.0 0.00 0.02 0.01 51 1011.5
20260509184012 81 205 3.0 7.0 0.00 0.02 0.01 52 1011.7
20260509183510 81 263 2.0 7.0 0.00 0.03 0.01 53 1011.8
20260509182511 80 237 2.0 5.0 0.00 0.03 0.01 55 1011.8
20260509182010 80 141 2.0 6.0 0.00 0.03 0.01 58 1011.8
20260509181511 79 198 2.0 6.0 0.00 0.03 0.01 56 1011.9
20260509181011 79 241 3.0 7.0 0.00 0.03 0.01 56 1011.9
20260509180511 79 212 2.0 7.0 0.00 0.03 0.01 55 1011.9
20260509180011 79 205 1.0 6.0 0.00 0.03 0.01 57 1011.9